Weather in Sadovoye

Russia / Volgograd Oblast     49°40′38″N   45°55′27″E
temp.,
°C
wind,
m/s
gust,
m/s
humid.,
%
clouds,
%
prec.,
mm/h
press.,
hPa
HPBL,
m
6 august, fri
fri600:00+22nne45398 0.0 101566
03:00+20ene344413 0.0 101557
06:00+21ne354114 0.0 1016138
09:00+28ene34285 0.0 10161171
12:00+31ene33225 0.0 10152328
15:00+33ene441810 0.0 10132579
18:00+31ene551888 0.0 10132401
21:00+25ene51027100 0.0 1013171
7 august, sat
sat700:00+23ene483268 0.0 1014138
03:00+21e4933100 0.0 1014162
06:00+23e5112935 0.0 1014324
09:00+30ese781998 0.0 10131182
12:00+33ese671776 0.0 10122193
15:00+35ese5615100 0.0 10122618
18:00+33e5716100 0.0 1011606
21:00+28e5922100 0.0 1012138
8 august, sun
sun800:00+26e5122636 0.0 1012208
03:00+24e5122986 0.0 1013198
06:00+25e61328100 0.0 1014382
09:00+33ese8101799 0.0 10151150
12:00+35ese8914100 0.0 10141935
15:00+36e891395 0.0 10131941
18:00+34e7915100 0.0 10131709
21:00+31e61221100 0.0 1014378
9 august, mon
mon900:00+30e10162591 0.0 1014697
03:00+29ese11172787 0.0 1014688
06:00+28ese81529100 0.0 1015731
09:00+30e91225100 0.0 1016997
12:00+31e101319100 0.0 1015765
15:00+32e81117100 0.0 10151120
18:00+34e791573 0.0 10141359
21:00+28ene4723100 0.0 1015107
10 august, tue
tue1000:00+27ene61321100 0.0 1015280
03:00+26ene6142315 0.0 1014313
06:00+26e6152799 0.0 1013424
09:00+34e91118100 0.0 10131085
12:00+37ese91115100 0.0 10112096
15:00+37ese10111599 0.0 10102715
18:00+30se51033100 0.0 1010344
21:00+28e41038100 0.1 1010213